Location: Polska
(52.0000°N, 19.0000°E)
Time: 02:04:26
(UTC+01:00)

ISS - Visible Passes

Search period start: 27 January 2021 00:00
Search period end: 06 February 2021 00:00
Orbit: 418 x 421 km, 51.6° (Epoch: 27 January)

Date Brightness Start Highest point End Pass type
(mag) Time Alt. Az. Time Alt. Az. Time Alt. Az.
27 Jan -3.8 18:01:39 10° W 18:05:03 85° S 18:06:15 37° E visible
27 Jan -0.6 19:38:28 10° W 19:39:13 16° W 19:39:13 16° W visible
28 Jan -3.7 17:14:19 10° WSW 17:17:43 79° S 17:20:52 12° E visible
28 Jan -3.0 18:51:08 10° W 18:53:50 53° W 18:53:50 53° W visible
29 Jan -3.8 18:03:46 10° W 18:07:10 83° S 18:08:28 35° ESE visible
29 Jan -0.7 19:40:38 10° W 19:41:27 16° W 19:41:27 16° W visible
30 Jan -3.7 17:16:24 10° W 17:19:48 87° S 17:23:08 10° E visible
30 Jan -2.8 18:53:14 10° W 18:56:07 46° SW 18:56:07 46° SW visible
31 Jan -3.4 18:05:51 10° W 18:09:13 63° SSW 18:10:50 27° ESE visible
31 Jan -0.6 19:43:02 10° W 19:43:49 14° WSW 19:43:49 14° WSW visible
01 Feb -3.6 17:18:28 10° W 17:21:51 75° SSW 17:25:14 10° ESE visible
01 Feb -2.1 18:55:26 10° W 18:58:24 28° SSW 18:58:36 28° SSW visible
02 Feb -2.5 18:07:56 10° W 18:11:07 38° SSW 18:13:29 15° SE visible
03 Feb -2.9 17:20:29 10° W 17:23:47 49° SSW 17:27:04 10° SE visible
03 Feb -1.0 18:58:06 10° WSW 19:00:03 14° SW 19:01:31 12° SSW visible
04 Feb -1.3 18:10:15 10° W 18:12:50 20° SW 18:15:24 10° SSE visible
05 Feb -1.7 17:22:37 10° W 17:25:34 28° SSW 17:28:30 10° SSE visible
